Tacoma, WA
on Saturday, December 15, 2012

Saturday
Previous Day Next Day
Daily Summary
 ActualAverage (KSEA)Record (KSEA)
Temperature
Mean Temperature °F 40°F  
Max Temperature 42°F 45°F 63°F (1980)
Min Temperature 28°F 35°F 19°F (2008)
Degree Days
Heating Degree Days 30 25  
Month to date heating degree days 360  
Since 1 July heating degree days 1543  
Cooling Degree Days 0 0  
Month to date cooling degree days 0  
Year to date cooling degree days 189  
Moisture
Dew Point 35°F   
Average Humidity 91    
Maximum Humidity 100    
Minimum Humidity 75    
Precipitation
Precipitation 0.05 in 0.16 in 1.60 in (1959)
Month to date precipitation 2.70  
Year to date precipitation 34.84  
Snow
Snow 0.00 in in 1.20 in (1979)
Month to date snowfall  
Since 1 July snowfall  
Snow Depth in   
Wind
Wind Speed 7 mph   
Max Wind Speed 17 mph   
Max Gust Speed 23 mph   
Visibility 9 miles   
Events Rain   

Key: T is trace of precipitation, MM is missing value
Source: NWS Daily Summary
Time(PST)TemperatureDew PointHumidity Pressure Visibility Wind DirectionWind SpeedGust SpeedPrecipitationEvents Conditions
12:58 AM 30.2°F 30.0°F 99% 29.91 in 10.0 miles SSE 6.9 mph - N/A   Clear
1:58 AM 31.5°F 31.1°F 99% 29.89 in 3.0 miles South 1.2 mph - N/A   Clear
2:03 AM 32.0°F 32.0°F 100% 29.87 in 1.2 miles South 1.2 mph - N/A   Clear
2:08 AM 32.0°F 32.0°F 100% 29.87 in 1.0 miles South 2.3 mph - N/A   Clear
2:13 AM 32.0°F 32.0°F 100% 29.88 in 1.2 miles South 2.3 mph - N/A   Clear
2:18 AM 32.0°F 32.0°F 100% 29.88 in 1.5 miles SSW 2.3 mph - N/A   Clear
2:23 AM 32.0°F 32.0°F 100% 29.88 in 2.0 miles WSW 2.3 mph - N/A   Clear
2:28 AM 30.2°F 30.2°F 100% 29.88 in 5.0 miles WNW 3.5 mph - N/A   Clear
2:58 AM 28.4°F 28.2°F 99% 29.90 in 10.0 miles WNW 1.2 mph - N/A   Mostly Cloudy
3:58 AM 31.5°F 31.1°F 99% 29.88 in 10.0 miles SE 2.3 mph - N/A   Overcast
4:58 AM 32.4°F 32.2°F 99% 29.84 in 10.0 miles SSE 6.9 mph - N/A   Overcast
5:58 AM 32.7°F 32.5°F 99% 29.81 in 10.0 miles SSE 8.1 mph - N/A   Clear
6:58 AM 34.9°F 34.7°F 99% 29.79 in 10.0 miles South 5.8 mph - N/A   Partly Cloudy
7:23 AM 35.6°F 33.8°F 93% 29.78 in 10.0 miles South 8.1 mph - N/A Rain Light Rain
7:27 AM 35.6°F 32.0°F 87% 29.78 in 10.0 miles SSW 8.1 mph - N/A   Clear
7:29 AM 35.6°F 32.0°F 87% 29.78 in 10.0 miles South 10.4 mph - N/A Rain Light Rain
7:58 AM 36.0°F 32.9°F 89% 29.79 in 10.0 miles Variable 5.8 mph - 0.00 in Rain Light Rain
8:22 AM 37.4°F 32.0°F 81% 29.76 in 10.0 miles South 6.9 mph - N/A   Clear
8:58 AM 37.8°F 33.1°F 83% 29.76 in 10.0 miles South 8.1 mph - 0.00 in   Clear
9:31 AM 39.2°F 32.0°F 75% 29.73 in 10.0 miles South 9.2 mph - N/A   Clear
9:58 AM 39.2°F 32.9°F 78% 29.73 in 10.0 miles SSE 11.5 mph - 0.00 in Rain Light Rain
10:08 AM 39.2°F 32.0°F 75% 29.70 in 10.0 miles SSE 12.7 mph 20.7 mph N/A Rain Light Rain
10:38 AM 39.2°F 33.8°F 81% 29.68 in 10.0 miles South 9.2 mph 20.7 mph N/A Rain Light Rain
10:48 AM 39.2°F 33.8°F 81% 29.67 in 10.0 miles South 11.5 mph 17.3 mph N/A   Overcast
10:58 AM 39.0°F 34.9°F 85% 29.68 in 10.0 miles SSE 6.9 mph 17.3 mph 0.02 in   Overcast
11:58 AM 40.8°F 34.2°F 77% 29.62 in 10.0 miles South 10.4 mph - N/A   Overcast
12:31 PM 41.0°F 33.8°F 76% 29.57 in 10.0 miles South 8.1 mph - N/A   Overcast
12:39 PM 41.0°F 33.8°F 76% 29.56 in 10.0 miles South 8.1 mph - N/A   Overcast
12:58 PM 42.1°F 34.5°F 75% 29.57 in 10.0 miles South 6.9 mph - 0.00 in   Overcast
1:09 PM 41.0°F 35.6°F 81% 29.55 in 10.0 miles SW 4.6 mph - N/A Rain Light Rain
1:34 PM 41.0°F 35.6°F 81% 29.54 in 7.0 miles Calm Calm - N/A Rain Light Rain
1:44 PM 41.0°F 37.4°F 87% 29.54 in 10.0 miles Variable 2.3 mph - N/A Rain Light Rain
1:58 PM 39.6°F 38.1°F 95% 29.56 in 10.0 miles NNW 4.6 mph - 0.02 in Rain Light Rain
2:00 PM 39.2°F 37.4°F 93% 29.54 in 10.0 miles North 5.8 mph - N/A   Overcast
2:04 PM 39.2°F 37.4°F 93% 29.53 in 10.0 miles NNW 5.8 mph - N/A Rain Light Rain
2:27 PM 39.2°F 39.2°F 100% 29.54 in 10.0 miles WSW 2.3 mph - N/A   Overcast
2:35 PM 39.2°F 39.2°F 100% 29.54 in 10.0 miles SSW 1.2 mph - N/A Rain Light Rain
2:55 PM 39.2°F 39.2°F 100% 29.55 in 10.0 miles North 1.2 mph - N/A   Overcast
2:56 PM 39.2°F 39.2°F 100% 29.55 in 10.0 miles North 1.2 mph - N/A Rain Light Rain
2:58 PM 39.2°F 39.2°F 100% 29.57 in 10.0 miles NNW 2.3 mph - 0.01 in Rain Light Rain
3:03 PM 39.2°F 39.2°F 100% 29.55 in 10.0 miles NW 2.3 mph - N/A Rain Light Rain
3:22 PM 39.2°F 39.2°F 100% 29.56 in 10.0 miles SW 6.9 mph - N/A   Overcast
3:37 PM 41.0°F 37.4°F 87% 29.56 in 10.0 miles SSW 16.1 mph 21.9 mph N/A   Overcast
3:52 PM 41.0°F 37.4°F 87% 29.56 in 10.0 miles SW 16.1 mph - N/A Rain Light Rain
3:58 PM 40.8°F 37.0°F 86% 29.58 in 10.0 miles SSW 12.7 mph 20.7 mph 0.00 in Rain Light Rain
4:07 PM 41.0°F 37.4°F 87% 29.57 in 10.0 miles SSW 15.0 mph 21.9 mph N/A   Mostly Cloudy
4:26 PM 41.0°F 37.4°F 87% 29.57 in 10.0 miles SSW 15.0 mph 21.9 mph N/A Rain Light Rain
4:43 PM 39.2°F 37.4°F 93% 29.57 in 10.0 miles SSW 12.7 mph 21.9 mph N/A   Mostly Cloudy
4:58 PM 39.6°F 36.7°F 89% 29.59 in 10.0 miles SSW 17.3 mph 21.9 mph 0.00 in   Scattered Clouds
5:58 PM 38.5°F 35.8°F 90% 29.61 in 10.0 miles SSW 10.4 mph - N/A   Mostly Cloudy
6:18 PM 39.2°F 35.6°F 87% 29.60 in 10.0 miles SSW 10.4 mph - N/A   Overcast
6:28 PM 39.2°F 35.6°F 87% 29.60 in 10.0 miles SSW 10.4 mph - N/A   Overcast
6:43 PM 39.2°F 35.6°F 87% 29.60 in 10.0 miles SSW 10.4 mph - N/A   Overcast
6:58 PM 38.1°F 35.4°F 90% 29.63 in 10.0 miles SSW 13.8 mph - N/A   Mostly Cloudy
7:01 PM 37.4°F 35.6°F 93% 29.61 in 10.0 miles SW 13.8 mph - N/A Rain Light Rain
7:10 PM 37.4°F 35.6°F 93% 29.61 in 10.0 miles SSW 16.1 mph - N/A   Mostly Cloudy
7:12 PM 37.4°F 35.6°F 93% 29.60 in 10.0 miles SSW 16.1 mph - N/A Rain Light Rain
7:23 PM 37.4°F 35.6°F 93% 29.61 in 10.0 miles SSW 15.0 mph 23.0 mph N/A   Mostly Cloudy
7:58 PM 37.6°F 35.8°F 93% 29.64 in 10.0 miles SSW 16.1 mph 20.7 mph 0.00 in   Scattered Clouds
8:58 PM 37.2°F 35.4°F 93% 29.67 in 10.0 miles SSW 13.8 mph - N/A   Scattered Clouds
9:53 PM 37.4°F 35.6°F 93% 29.68 in 10.0 miles South 15.0 mph - N/A   Mostly Cloudy
9:58 PM 37.2°F 35.4°F 93% 29.70 in 10.0 miles South 12.7 mph - N/A   Mostly Cloudy
10:23 PM 35.6°F 33.8°F 93% 29.69 in 10.0 miles South 11.5 mph - N/A   Scattered Clouds
10:58 PM 36.0°F 34.3°F 94% 29.72 in 10.0 miles South 12.7 mph - N/A   Clear
11:58 PM 35.6°F 34.0°F 94% 29.74 in 10.0 miles South 8.1 mph - N/A   Mostly Cloudy
Moon Phase
Dec. 15 Dec. 20 Dec. 28 Jan. 04 Jan. 11
Sunrise:07:49 AM (PST) Moon Rise:09:39 AM (PST)12/15
Sunset:04:20 PM (PST) Moon Set:07:40 PM (PST)12/15

Copyright © 2014 The Weather Underground, Inc.